Madison, WI

9:58 AM CST on November 22, 2017 (GMT -0600)
Dane County Regional-Truax

Weather History for KMSN - August, 2013

Change the Weather History Date:

Sunday, August 18, 2013

  Actual Average Record
Temperature  
Mean Temperature 67 °F 69 °F  
Max Temperature 81 °F 79 °F 101 °F (1936)
Min Temperature 52 °F 59 °F 41 °F (1977)
Degree Days  
Heating Degree Days 0 1  
Month to date heating degree days 12 15  
Since 1 June heating degree days 82 85  
Since 1 July heating degree days 30 25  
Cooling Degree Days 2 5  
Month to date cooling degree days 52 102  
Year to date cooling degree days 473 458  
Since 1 June cooling degree days 420 428  
Growing Degree Days 16 (Base 50)    
Moisture  
Dew Point 54 °F    
Average Humidity 68    
Maximum Humidity 100    
Minimum Humidity 36    
Precipitation  
Precipitation 0.00 in 0.15 in 3.39 in (2007)
Month to date precipitation 0.30 2.55  
Year to date precipitation 35.25 23.10  
Snow  
Snow 0.00 in 0.00 in 0.00 in ()
Month to date snowfall 0.0 0.0  
Since 1 June snowfall 0.0 0.0  
Since 1 July snowfall 0.0 0.0  
Snow Depth 0.00 in    
Sea Level Pressure  
Sea Level Pressure 30.16 in    
Wind  
Wind Speed 3 mph (SSW)    
Max Wind Speed 12 mph    
Max Gust Speed 18 mph    
Visibility 9 miles    
Events Fog    
T = Trace of Precipitation, MM = Missing Value Source: NWS Daily Summary

Daily Weather History Graph

Daily Weather History Graph

Search for Another Location

Airport or City:

Trip Planner

Search our weather history database for the weather conditions in past years. The results will help you decide how hot, cold, wet, or windy it might be!

Date:

Astronomy

Aug. 18, 2013 Rise Set
Actual Time 6:06 AM CDT 7:54 PM CDT
Civil Twilight 5:36 AM CDT 8:25 PM CDT
Nautical Twilight 4:58 AM CDT 9:02 PM CDT
Astronomical Twilight 4:18 AM CDT 9:42 PM CDT
Moon 6:02 PM CDT (8/18) 3:13 AM CDT (8/18)
Length of Visible Light 14h 49m
Length of Day
13h 48m
Waxing Gibbous, 92% of the Moon is Illuminated
Aug 18
Waxing Gibbous
Aug 20
Full
Aug 28
Last Quarter
Sep 5
New
Sep 12
First Quarter

Hourly Weather History & Observations

Time (CDT) Temp. Heat Index Dew Point Humidity Pressure Visibility Wind Dir Wind Speed Gust Speed Precip Events Conditions
12:53 AM 57.9 °F - 55.0 °F 90% 30.18 in 10.0 mi Calm Calm - N/A   Clear
1:53 AM 57.0 °F - 55.0 °F 93% 30.18 in 10.0 mi Calm Calm - N/A   Clear
2:53 AM 55.9 °F - 54.0 °F 93% 30.18 in 10.0 mi Calm Calm - N/A   Clear
3:53 AM 55.0 °F - 53.1 °F 93% 30.19 in 7.0 mi Calm Calm - N/A   Clear
4:53 AM 53.1 °F - 52.0 °F 96% 30.19 in 5.0 mi Calm Calm - N/A   Clear
5:53 AM 52.0 °F - 51.1 °F 97% 30.20 in 8.0 mi Calm Calm - N/A Fog Patches of Fog
6:53 AM 53.1 °F - 52.0 °F 96% 30.22 in 7.0 mi Calm Calm - N/A   Clear
7:53 AM 62.1 °F - 55.0 °F 78% 30.22 in 10.0 mi Calm Calm - N/A   Clear
8:53 AM 68.0 °F - 57.9 °F 70% 30.22 in 10.0 mi South 3.5 mph - N/A   Clear
9:53 AM 71.1 °F - 57.0 °F 61% 30.21 in 10.0 mi SSE 5.8 mph - N/A   Clear
10:53 AM 73.9 °F - 57.0 °F 55% 30.19 in 10.0 mi SSW 3.5 mph - N/A   Clear
11:53 AM 77.0 °F - 55.9 °F 48% 30.19 in 10.0 mi Variable 4.6 mph - N/A   Partly Cloudy
12:53 PM 78.1 °F - 53.1 °F 42% 30.17 in 10.0 mi Variable 3.5 mph - N/A   Partly Cloudy
1:53 PM 80.1 °F - 51.1 °F 36% 30.16 in 10.0 mi Calm Calm - N/A   Partly Cloudy
2:53 PM 80.1 °F - 51.1 °F 36% 30.14 in 10.0 mi SW 8.1 mph - N/A   Partly Cloudy
3:53 PM 79.0 °F - 52.0 °F 39% 30.12 in 10.0 mi South 9.2 mph - N/A   Partly Cloudy
4:53 PM 79.0 °F - 54.0 °F 42% 30.11 in 10.0 mi South 6.9 mph - N/A   Partly Cloudy
5:53 PM 80.1 °F 80.0 °F 54.0 °F 40% 30.12 in 10.0 mi Calm Calm - N/A   Partly Cloudy
6:53 PM 78.1 °F - 53.1 °F 42% 30.10 in 10.0 mi SW 4.6 mph - N/A   Partly Cloudy
7:53 PM 73.9 °F - 55.0 °F 52% 30.10 in 10.0 mi Calm Calm - N/A   Clear
8:53 PM 73.0 °F - 55.9 °F 55% 30.09 in 10.0 mi South 5.8 mph - N/A   Clear
9:53 PM 71.1 °F - 57.0 °F 61% 30.09 in 10.0 mi South 5.8 mph - N/A   Clear
10:53 PM 66.0 °F - 57.0 °F 73% 30.10 in 10.0 mi Calm Calm - N/A   Clear
11:53 PM 69.1 °F - 57.0 °F 65% 30.10 in 10.0 mi SW 4.6 mph - N/A   Clear